Simultaneous Nadir Overpasses (SNOs) Predictions

Prediction of SNOs between GOES-16 and NOAA-19 Satellite Orbit:

Table of predicted SNOs for the next 14.0 days since TLE Epoch: 5/18/2024
Index Date Time (GOES-16) GOES-16 Lat,Lon NOAA-19 Lat,Lon Distance(km) Time Diff (sec)
1 05/18/2024 14:17:19 0.06, -75.20 0.32, -76.29 124.44 80
2 05/19/2024 14:07:43 0.06, -75.21 -0.39, -73.32 216.54 80
3 05/22/2024 02:27:19 -0.05, -75.22 -0.71, -77.98 315.03 80
4 05/23/2024 02:12:23 -0.05, -75.23 -0.02, -74.99 26.43 80
5 05/24/2024 02:00:06 -0.05, -75.24 0.66, -72.01 367.61 80
6 05/25/2024 14:31:50 0.04, -75.25 1.05, -79.63 499.67 80
7 05/26/2024 14:19:33 0.04, -75.26 0.37, -76.65 158.38 80
8 05/27/2024 14:09:57 0.03, -75.27 -0.31, -73.66 183.09 80
9 05/30/2024 02:29:30 -0.02, -75.30 -0.71, -78.33 345.63 80
10 05/31/2024 02:17:13 -0.02, -75.31 -0.05, -75.33 4.43 80
